Wind_Speed
14 13 12 11 10 10 11 12 15 17 16 16 16 16 16 16 16 16 15 14 12 11 11 10 10 10 9 10 9 9 9 9 9 9 10 10 10 11 11 11 12 12 13
14 13 13 12 11 11 12 13 14 16 16 16 16 16 17 16 16 15 15 14 13 12 11 11 11 10 10 9 10 10 9 9 9 9 9 10 10 10 10 11 11 12 12
14 13 13 12 12 12 13 14 15 15 16 16 16 16 16 16 15 14 14 14 13 12 11 10 10 10 9 9 8 9 9 8 8 8 8 8 9 9 9 10 11 11 11
14 13 12 12 12 13 14 15 16 15 15 15 15 15 15 15 15 15 14 14 12 11 11 10 10 9 8 8 8 8 8 8 8 8 8 8 8 9 9 9 10 10 11
14 13 13 13 13 13 14 15 16 16 16 15 15 15 16 15 15 14 14 13 12 11 11 11 10 9 9 8 8 8 7 7 7 7 8 8 8 8 8 9 9 9 10
14 13 14 14 14 14 14 16 17 18 16 16 16 16 15 15 14 14 13 12 12 11 10 10 10 9 9 8 7 7 7 7 7 7 7 7 7 7 8 8 8 9 10
13 13 13 14 15 15 15 16 17 18 17 17 16 17 16 15 14 13 13 12 11 11 10 10 10 10 9 9 8 8 8 7 7 6 6 6 6 7 7 8 8 9 9
13 13 13 14 14 15 15 16 17 18 18 17 16 16 16 15 14 13 13 12 11 11 10 10 9 9 9 8 8 7 7 7 6 6 6 6 6 6 6 7 8 8 9
12 12 13 13 14 15 15 15 16 17 18 17 17 17 15 14 14 13 13 13 12 11 11 10 9 9 8 7 7 6 6 6 6 6 6 6 6 6 7 8 8 9 9
12 12 13 13 14 15 15 15 15 17 18 18 18 17 16 15 14 14 13 12 12 11 10 10 9 9 8 7 7 6 6 7 7 7 7 7 7 7 8 9 9 10 11
13 12 13 13 14 15 15 14 15 16 17 17 18 17 16 16 15 14 14 13 12 12 12 11 10 9 9 8 8 7 7 7 7 7 8 8 8 8 9 9 10 11 11
13 12 12 12 13 14 15 14 14 15 16 17 18 18 17 16 15 15 14 14 13 13 12 12 11 10 10 9 9 8 8 8 8 8 9 9 9 9 10 10 11 12 13
14 14 13 12 12 13 14 14 14 14 15 16 17 17 17 16 16 15 14 14 14 14 13 12 11 11 11 11 10 10 9 10 10 10 10 10 10 11 11 12 13 13 14
16 15 15 15 14 14 14 14 14 14 15 16 17 17 17 17 16 16 15 15 14 14 14 13 12 12 12 12 11 11 11 11 11 11 12 12 12 13 14 14 15 16 17
17 17 16 15 15 15 15 15 15 16 16 16 17 17 17 17 17 16 16 15 14 14 14 14 13 13 13 13 13 13 13 13 13 13 14 14 15 16 16 17 18 19 19
18 18 18 17 17 16 16 15 16 17 17 17 17 17 17 17 17 17 16 16 15 15 15 15 15 14 14 15 15 15 15 15 15 16 16 17 17 18 19 20 21 21 22
19 19 19 20 19 18 17 16 17 17 18 18 18 18 18 18 17 17 17 16 16 16 16 16 15 15 15 16 16 16 17 17 17 18 19 19 20 21 22 23 23 24 24
20 20 21 21 20 19 18 18 18 18 18 18 18 18 18 18 18 18 17 17 17 17 16 16 16 16 17 17 18 18 18 19 19 20 21 22 22 23 24 25 26 26 27
21 21 21 22 21 20 20 19 18 19 18 18 19 19 19 19 19 19 18 18 18 18 18 17 17 18 18 19 19 19 20 21 22 23 23 24 25 26 27 28 28 28 29
22 22 22 21 22 21 21 20 20 20 19 20 20 20 20 20 20 20 19 19 19 20 20 20 20 20 20 21 22 22 22 23 24 25 26 26 27 28 28 28 29 30 31
22 22 22 21 21 21 21 21 21 21 21 22 22 21 21 21 21 21 21 21 22 22 22 22 22 22 23 24 24 25 25 26 27 27 28 28 28 29 30 30 31 32 33
23 23 23 22 22 21 20 21 21 22 23 23 23 22 22 22 22 22 23 23 24 23 24 24 24 24 25 25 26 27 28 28 29 29 30 31 31 32 32 33 34 35 36
23 24 24 23 22 22 21 21 22 23 23 23 24 24 24 24 23 23 24 25 25 26 25 25 26 26 26 27 27 28 29 30 31 31 33 34 35 35 35 36 37 38 39
24 24 24 24 24 23 23 23 24 24 23 24 24 25 25 25 25 25 25 25 26 27 27 27 27 27 28 28 29 30 30 32 33 34 35 35 36 37 38 38 39 40 41
25 25 24 24 25 25 25 25 25 25 25 25 25 26 26 26 26 26 26 27 27 28 29 29 29 30 30 30 31 32 32 33 34 35 36 36 37 38 38 39 40 41 42
25 26 26 25 25 25 26 26 27 27 27 27 27 26 27 27 27 28 28 28 29 29 30 31 32 32 33 33 34 35 35 35 36 37 37 38 39 40 41 42 43 44 44
Wind_Direction
270 270 264 255 250 246 235 222 213 211 215 215 215 216 213 212 215 217 217 217 219 222 225 229 229 232 234 234 234 239 241 244 245 244 247 251 257 257 258 262 264 266 265
267 266 263 255 246 244 233 222 216 214 216 215 214 212 212 213 215 218 217 218 221 224 228 230 229 230 231 234 236 240 237 238 242 246 249 253 257 259 265 267 268 269 271
266 265 260 248 242 242 232 225 221 217 216 216 215 213 212 213 214 216 216 218 220 222 225 227 227 228 230 232 232 233 233 237 241 244 250 256 257 263 268 270 270 271 273
262 261 255 246 241 238 230 224 217 215 213 213 214 213 211 211 213 215 216 219 220 222 222 224 228 231 232 230 233 230 232 235 239 243 248 254 261 267 273 274 273 272 273
260 256 251 245 238 233 226 222 217 215 216 216 214 211 210 212 215 216 217 216 216 216 218 220 224 227 226 228 229 228 230 232 235 242 249 253 261 267 272 274 274 274 276
258 253 246 241 236 231 229 224 219 218 219 217 214 211 210 211 212 213 214 215 216 217 218 223 225 224 222 222 226 228 227 231 238 246 253 256 261 266 271 273 275 279 282
259 252 244 240 235 230 227 225 221 218 218 218 214 211 211 210 209 210 211 213 216 215 217 221 225 223 222 224 228 232 233 238 244 250 254 258 263 267 272 275 277 282 286
254 251 243 234 230 228 224 223 222 218 218 217 213 211 210 209 209 209 210 210 213 214 218 218 217 221 225 226 231 234 234 240 245 249 253 258 261 268 274 279 284 287 288
245 239 231 227 226 224 220 219 217 217 217 214 212 210 207 208 209 209 209 210 214 218 217 216 221 223 224 225 229 235 239 242 245 250 252 259 266 274 279 282 285 288 289
238 232 224 224 220 216 213 214 216 215 214 214 212 212 210 210 209 207 205 207 212 213 214 218 222 221 222 228 234 241 247 247 249 251 255 261 268 276 281 285 286 287 288
233 230 224 220 217 214 216 217 216 215 215 214 212 211 210 211 210 211 211 213 215 214 215 220 223 225 227 231 235 245 252 253 252 256 261 265 272 278 284 288 290 289 290
230 226 221 218 219 216 217 217 216 217 215 212 209 208 208 212 215 216 216 217 218 217 220 224 228 230 234 237 241 248 253 255 256 261 266 270 272 278 284 288 291 292 292
228 223 222 221 219 218 216 214 214 216 215 211 208 207 211 214 216 217 218 218 221 223 225 228 232 236 239 242 246 250 254 257 259 264 268 271 274 279 283 287 289 291 294
229 226 224 224 222 222 219 216 214 214 212 209 207 209 212 214 216 219 220 222 225 227 229 233 237 241 244 247 251 254 257 261 264 268 272 274 276 280 283 286 289 292 294
230 228 227 225 224 225 221 219 218 214 213 213 212 213 215 217 218 220 223 226 229 232 234 239 240 245 248 250 253 256 260 265 268 271 275 277 280 282 284 286 289 292 294
232 231 229 228 227 224 221 221 220 217 218 218 217 216 217 217 220 224 227 231 234 236 240 243 244 247 251 253 255 259 263 266 270 274 277 280 282 284 286 287 288 291 293
232 232 231 229 228 226 224 223 220 221 221 221 220 220 221 222 224 226 230 234 238 241 244 245 247 252 255 257 259 262 265 269 272 276 278 281 283 285 287 288 290 291 292
232 230 229 228 227 227 227 227 226 226 224 221 220 221 223 224 227 230 234 238 240 242 245 248 251 254 258 261 264 266 268 271 274 277 279 281 283 285 286 287 290 291 292
232 229 229 228 228 228 228 228 228 225 223 222 223 224 227 230 232 235 237 239 242 245 249 253 255 258 261 265 267 269 271 273 275 277 279 281 283 285 286 287 288 290 291
230 229 229 229 229 228 228 227 226 226 227 228 228 230 232 234 236 237 237 240 244 247 251 255 259 262 265 267 268 270 273 274 276 277 280 282 284 286 287 288 290 291 291
227 228 229 229 229 227 227 228 227 227 228 229 231 232 234 236 238 239 241 244 247 250 254 259 262 266 268 270 271 273 274 276 276 278 280 281 282 284 286 288 290 291 291
227 228 230 229 229 228 228 227 226 226 228 230 232 234 236 238 240 243 245 246 249 253 257 261 264 267 270 271 273 275 275 277 278 279 280 281 283 284 286 287 289 290 291
228 229 230 230 230 231 230 228 227 228 231 234 235 237 240 241 244 246 249 250 252 256 259 263 266 268 270 272 274 277 277 277 278 280 282 282 283 284 286 288 289 290 291
228 229 231 232 233 232 230 231 232 233 235 236 238 240 242 244 246 249 253 256 258 260 262 265 267 269 271 274 276 277 279 281 281 282 284 285 286 287 286 288 290 291 293
228 228 229 230 232 232 230 231 233 235 237 238 241 243 244 247 250 252 255 258 260 262 263 265 268 270 273 276 278 278 280 283 283 283 284 285 286 287 288 289 291 292 293
228 229 229 230 232 233 233 233 236 239 239 241 244 246 248 249 252 255 257 259 261 263 264 267 270 272 274 277 278 279 280 282 283 283 284 286 287 288 289 290 291 293 294
Height
5852 5852 5851 5851 5851 5851 5852 5853 5855 5856 5858 5860 5862 5864 5866 5868 5870 5872 5874 5876 5877 5879 5880 5882 5883 5884 5885 5886 5887 5888 5888 5889 5889 5890 5891 5891 5891 5891 5892 5892 5892 5892 5892
5849 5848 5848 5848 5848 5849 5850 5851 5853 5855 5856 5858 5860 5862 5864 5866 5868 5870 5872 5874 5875 5877 5878 5880 5881 5882 5883 5884 5885 5886 5886 5887 5888 5888 5888 5889 5890 5890 5889 5889 5890 5890 5889
5846 5845 5845 5845 5845 5846 5848 5849 5851 5852 5854 5856 5858 5860 5862 5864 5866 5868 5870 5872 5874 5875 5877 5878 5879 5880 5881 5882 5883 5884 5885 5885 5886 5886 5887 5887 5887 5887 5887 5887 5887 5887 5887
5842 5842 5842 5842 5843 5844 5845 5847 5848 5850 5852 5854 5856 5858 5860 5862 5864 5866 5868 5870 5872 5873 5875 5876 5877 5878 5879 5881 5881 5882 5883 5884 5884 5885 5885 5885 5885 5885 5885 5885 5885 5885 5884
5839 5839 5839 5839 5840 5841 5842 5844 5846 5848 5850 5852 5854 5856 5858 5860 5862 5864 5866 5868 5870 5872 5873 5875 5876 5877 5878 5879 5880 5881 5881 5882 5883 5883 5883 5883 5883 5883 5883 5883 5883 5883 5882
5835 5835 5835 5836 5837 5839 5840 5842 5844 5846 5848 5850 5852 5854 5856 5858 5861 5863 5865 5867 5869 5870 5872 5873 5875 5876 5877 5878 5879 5879 5880 5880 5881 5881 5882 5882 5882 5881 5881 5881 5881 5880 5880
5831 5832 5832 5833 5834 5836 5837 5839 5841 5843 5845 5848 5850 5852 5854 5857 5859 5861 5863 5865 5867 5869 5870 5872 5873 5875 5876 5876 5877 5878 5878 5879 5879 5879 5880 5880 5880 5879 5879 5879 5879 5878 5878
5828 5828 5829 5830 5831 5832 5834 5835 5837 5840 5843 5846 5848 5850 5853 5855 5857 5859 5861 5863 5865 5867 5869 5870 5872 5873 5874 5875 5875 5876 5876 5877 5877 5878 5878 5878 5878 5878 5877 5877 5877 5876 5875
5824 5825 5825 5827 5828 5830 5832 5833 5835 5838 5841 5843 5846 5849 5851 5853 5856 5858 5859 5862 5864 5866 5867 5869 5871 5872 5872 5873 5874 5874 5875 5875 5875 5876 5876 5876 5876 5876 5876 5875 5874 5874 5873
5820 5821 5822 5824 5825 5827 5829 5831 5834 5836 5838 5841 5844 5847 5849 5852 5854 5856 5858 5860 5862 5864 5866 5868 5869 5870 5871 5872 5873 5873 5873 5874 5874 5874 5874 5874 5874 5874 5873 5873 5872 5871 5871
5817 5818 5820 5821 5823 5825 5827 5829 5831 5833 5836 5839 5842 5845 5847 5850 5852 5855 5857 5859 5861 5863 5864 5866 5867 5869 5870 5870 5871 5871 5872 5872 5872 5872 5872 5872 5872 5872 5871 5870 5869 5868 5867
5815 5816 5817 5819 5821 5822 5824 5827 5829 5831 5834 5836 5839 5842 5845 5848 5850 5853 5855 5857 5859 5861 5863 5864 5865 5867 5868 5869 5869 5870 5870 5870 5870 5870 5870 5870 5869 5869 5869 5868 5867 5865 5864
5812 5814 5815 5817 5819 5820 5822 5824 5826 5829 5831 5834 5837 5840 5843 5846 5848 5851 5853 5855 5857 5859 5860 5862 5863 5864 5866 5866 5867 5867 5868 5868 5868 5868 5867 5867 5867 5866 5866 5865 5863 5862 5861
5809 5811 5813 5814 5816 5818 5820 5822 5824 5827 5829 5832 5835 5838 5840 5843 5846 5849 5851 5853 5854 5856 5858 5859 5861 5862 5863 5864 5864 5865 5865 5865 5865 5865 5865 5864 5864 5863 5862 5861 5860 5859 5857
5806 5808 5809 5811 5813 5816 5818 5820 5822 5825 5827 5830 5833 5835 5838 5841 5843 5846 5848 5850 5852 5854 5855 5856 5857 5859 5860 5860 5861 5862 5862 5862 5862 5862 5861 5861 5860 5859 5859 5857 5856 5854 5853
5802 5804 5806 5808 5810 5813 5815 5818 5820 5822 5825 5828 5830 5833 5836 5838 5841 5843 5845 5847 5849 5851 5852 5853 5854 5855 5856 5857 5858 5858 5858 5858 5858 5858 5857 5857 5856 5855 5854 5853 5851 5850 5848
5798 5800 5802 5804 5807 5809 5812 5814 5817 5819 5822 5825 5827 5830 5833 5836 5838 5840 5842 5844 5846 5847 5849 5850 5851 5852 5853 5853 5854 5854 5854 5854 5854 5853 5853 5852 5851 5850 5849 5847 5846 5844 5842
5793 5796 5798 5800 5803 5806 5808 5811 5813 5816 5819 5821 5824 5827 5830 5832 5835 5837 5839 5840 5842 5844 5845 5846 5847 5848 5849 5849 5849 5849 5849 5849 5849 5848 5848 5847 5845 5844 5843 5841 5839 5837 5835
5788 5791 5793 5796 5799 5802 5804 5807 5809 5812 5815 5818 5821 5824 5826 5828 5831 5833 5835 5836 5838 5840 5841 5842 5843 5844 5844 5844 5844 5844 5844 5843 5843 5842 5841 5840 5839 5838 5836 5834 5832 5830 5828
5784 5786 5789 5792 5795 5797 5800 5803 5805 5808 5812 5815 5817 5820 5822 5824 5827 5828 5830 5832 5834 5835 5836 5838 5838 5839 5839 5839 5838 5838 5838 5837 5837 5836 5835 5834 5832 5831 5828 5826 5824 5822 5820
5779 5782 5785 5788 5790 5793 5796 5799 5801 5804 5807 5810 5813 5815 5818 5820 5822 5824 5826 5828 5829 5830 5832 5833 5833 5833 5833 5833 5833 5832 5832 5831 5829 5828 5827 5826 5824 5822 5820 5818 5816 5814 5811
5774 5777 5780 5783 5786 5789 5791 5794 5797 5800 5802 5805 5808 5810 5813 5815 5817 5819 5821 5822 5824 5825 5826 5826 5827 5827 5827 5826 5826 5825 5824 5823 5822 5821 5819 5818 5816 5814 5812 5810 5807 5804 5801
5769 5772 5775 5778 5781 5784 5787 5789 5792 5794 5797 5800 5803 5805 5807 5810 5812 5813 5815 5816 5818 5819 5819 5820 5820 5820 5820 5819 5818 5817 5816 5815 5814 5812 5810 5809 5807 5804 5802 5800 5797 5794 5791
5764 5767 5770 5773 5776 5779 5782 5784 5787 5789 5792 5795 5797 5800 5802 5804 5806 5807 5809 5810 5811 5812 5813 5813 5813 5812 5812 5811 5810 5809 5808 5806 5805 5803 5802 5799 5797 5795 5792 5790 5787 5783 5780
5758 5761 5764 5767 5770 5773 5776 5779 5782 5784 5787 5789 5792 5794 5796 5798 5800 5801 5802 5803 5804 5805 5805 5805 5805 5805 5804 5803 5802 5800 5799 5798 5796 5793 5792 5790 5787 5785 5782 5779 5775 5772 5769
5752 5755 5758 5762 5765 5767 5770 5773 5776 5778 5781 5783 5786 5788 5790 5791 5793 5794 5795 5795 5796 5797 5797 5797 5796 5796 5795 5794 5793 5792 5790 5788 5786 5783 5781 5779 5776 5774 5770 5767 5764 5760 5757